CDT,Max TemperatureF,Mean TemperatureF,Min TemperatureF,Max Dew PointF,MeanDew PointF,Min DewpointF,Max Humidity, Mean Humidity, Min Humidity, Max Sea Level PressureIn, Mean Sea Level PressureIn, Min Sea Level PressureIn, Max VisibilityMiles, Mean VisibilityMiles, Min VisibilityMiles, Max Wind SpeedMPH, Mean Wind SpeedMPH, Max Gust SpeedMPH,PrecipitationIn, CloudCover, Events, WindDirDegrees
2012-4-1,92,71,49,59,35,19,84,46,7,29.55,29.41,29.29,10,10,10,32,16,40,0.00,0,,203
2012-4-2,78,62,45,48,36,21,86,55,24,29.70,29.48,29.28,10,10,10,44,17,58,0.26,2,Rain-Thunderstorm,20
2012-4-3,49,45,40,47,42,37,100,91,82,30.01,29.91,29.66,10,7,2,39,16,49,0.28,7,Rain,6
2012-4-4,54,46,37,46,41,35,92,82,71,29.97,29.87,29.82,10,10,10,25,12,31,T,6,,309
2012-4-5,62,51,40,50,44,37,100,82,64,29.98,29.91,29.83,10,8,0,14,5,20,0.00,4,Fog,2
2012-4-6,71,59,47,55,50,45,100,77,53,30.03,29.93,29.76,10,8,2,24,14,31,0.00,5,,160
2012-4-7,63,54,44,54,34,18,93,59,24,30.34,30.16,29.85,10,10,10,36,15,43,0.00,1,,29
2012-4-8,73,54,35,46,38,32,92,62,31,30.36,30.24,30.10,10,10,10,18,9,24,0.00,0,,182
2012-4-9,82,66,50,57,50,42,93,61,28,30.16,30.03,29.90,10,10,8,22,11,29,0.00,2,,123
2012-4-10,74,65,56,60,57,55,100,79,57,30.16,30.06,29.92,10,6,0,21,8,37,0.01,5,Fog-Rain-Thunderstorm,93
2012-4-11,69,61,52,57,53,48,100,82,63,30.10,29.99,29.92,10,8,2,32,13,43,0.40,6,Rain,120
2012-4-12,77,64,51,59,54,39,100,66,31,29.99,29.77,29.53,10,10,7,29,16,38,0.03,5,Rain-Thunderstorm,165
2012-4-13,75,61,47,45,34,26,66,41,16,29.83,29.72,29.63,10,10,10,17,8,23,0.00,0,,178
2012-4-14,84,69,54,61,46,26,93,54,14,29.64,29.44,29.21,10,10,9,43,20,52,0.00,4,,198
2012-4-15,65,55,44,40,31,20,61,46,30,29.98,29.60,29.40,10,10,10,37,17,46,T,3,,281
2012-4-16,68,53,37,47,39,34,92,63,34,30.16,30.10,29.99,10,10,10,30,7,43,0.06,2,Rain-Thunderstorm,187
2012-4-17,79,58,37,46,40,31,92,55,17,30.23,30.08,29.92,10,10,10,24,11,32,0.00,0,,193
2012-4-18,83,66,48,46,38,31,63,40,16,29.96,29.83,29.63,10,10,10,20,10,24,0.00,0,,197
2012-4-19,73,61,49,48,41,36,83,57,31,29.89,29.75,29.60,10,10,10,35,14,43,0.01,2,Rain,332
2012-4-20,70,58,46,45,40,34,86,57,27,30.16,30.04,29.90,10,10,10,21,10,29,0.00,2,,7
2012-4-21,83,62,40,43,39,36,85,53,21,30.04,29.97,29.92,10,10,10,24,12,32,0.00,0,,187
2012-4-22,71,58,45,43,37,32,82,55,28,30.25,30.16,30.04,10,10,10,20,8,24,0.00,0,,55
2012-4-23,84,63,41,49,41,34,70,47,23,30.24,30.05,29.87,10,10,10,25,11,32,0.00,0,,194
2012-4-24,97,73,49,43,41,37,71,43,14,29.90,29.72,29.58,10,10,10,28,12,35,0.00,0,,232
2012-4-25,96,75,54,49,39,34,47,29,11,29.72,29.64,29.57,10,10,10,21,9,26,0.00,0,,356
2012-4-26,87,71,55,60,53,49,81,58,35,29.85,29.74,29.62,10,10,10,30,11,44,T,1,Rain-Thunderstorm,112
2012-4-27,82,68,53,63,50,34,87,58,28,29.73,29.55,29.44,10,10,10,38,17,53,0.00,2,,168
2012-4-28,71,57,43,45,33,25,77,48,19,29.89,29.84,29.67,10,10,10,24,12,29,0.00,0,,44
2012-4-29,80,66,52,55,49,40,89,62,35,30.01,29.88,29.74,10,9,2,35,10,48,0.45,5,Rain-Thunderstorm,119
2012-4-30,77,66,54,61,55,50,93,72,50,30.01,29.86,29.65,10,10,3,22,10,26,0.40,5,Rain-Thunderstorm,161